Time,TemperatureF,DewpointF,PressureIn,WindDirection,WindDirectionDegrees,WindSpeedMPH,WindSpeedGustMPH,Humidity,HourlyPrecipIn,Conditions,Clouds,dailyrainin,SoftwareType,DateUTC
2013-05-03 00:00:00,65.2,33.0,30.16,SE,130,3.0,3.0,30,0.00,,,0.00,WeatherCatV1.15B25,2013-05-03 04:00:00,
2013-05-03 00:01:00,65.3,33.9,30.16,SE,129,2.0,3.0,31,0.00,,,0.00,WeatherCatV1.15B25,2013-05-03 04:01:00,
2013-05-03 00:02:00,65.3,33.1,30.16,SE,129,3.0,4.0,30,0.00,,,0.00,WeatherCatV1.15B25,2013-05-03 04:02:00,
2013-05-03 00:04:00,65.6,33.3,30.16,SE,127,3.0,4.0,30,0.00,,,0.00,WeatherCatV1.15B25,2013-05-03 04:04:00,
2013-05-03 00:05:00,65.7,33.4,30.16,ESE,108,2.0,4.0,30,0.00,,,0.00,WeatherCatV1.15B25,2013-05-03 04:05:00,
2013-05-03 00:06:00,65.8,33.5,30.17,ESE,116,4.0,4.0,30,0.00,,,0.00,WeatherCatV1.15B25,2013-05-03 04:06:00,
2013-05-03 00:11:00,65.9,32.7,30.16,SE,132,3.0,5.0,29,0.00,,,0.00,WeatherCatV1.15B25,2013-05-03 04:11:00,
2013-05-03 00:16:00,66.0,32.8,30.16,ESE,110,3.0,6.0,29,0.00,,,0.00,WeatherCatV1.15B25,2013-05-03 04:16:00,
2013-05-03 00:21:00,66.0,32.8,30.16,SE,125,3.0,5.0,29,0.00,,,0.00,WeatherCatV1.15B25,2013-05-03 04:21:00,
2013-05-03 00:26:00,65.9,32.7,30.17,SE,144,2.0,3.0,29,0.00,,,0.00,WeatherCatV1.15B25,2013-05-03 04:26:00,
2013-05-03 00:31:00,65.8,33.5,30.16,ENE,61,2.0,6.0,30,0.00,,,0.00,WeatherCatV1.15B25,2013-05-03 04:31:00,
2013-05-03 00:36:00,65.7,34.2,30.16,SSE,161,4.0,5.0,31,0.00,,,0.00,WeatherCatV1.15B25,2013-05-03 04:36:00,
2013-05-03 00:41:00,65.6,33.3,30.16,SE,132,4.0,5.0,30,0.00,,,0.00,WeatherCatV1.15B25,2013-05-03 04:41:00,
2013-05-03 00:46:00,65.7,34.2,30.16,SE,130,0.0,4.0,31,0.00,,,0.00,WeatherCatV1.15B25,2013-05-03 04:46:00,
2013-05-03 00:51:00,65.5,34.1,30.16,SE,125,2.0,4.0,31,0.00,,,0.00,WeatherCatV1.15B25,2013-05-03 04:51:00,
2013-05-03 00:56:00,65.5,34.1,30.17,ESE,122,5.0,5.0,31,0.00,,,0.00,WeatherCatV1.15B25,2013-05-03 04:56:00,
2013-05-03 01:01:00,65.5,34.1,30.17,SE,142,2.0,5.0,31,0.00,,,0.00,WeatherCatV1.15B25,2013-05-03 05:01:00,
2013-05-03 01:06:00,65.3,34.7,30.17,SE,127,2.0,6.0,32,0.00,,,0.00,WeatherCatV1.15B25,2013-05-03 05:06:00,
2013-05-03 01:11:00,65.2,34.6,30.17,ESE,115,2.0,7.0,32,0.00,,,0.00,WeatherCatV1.15B25,2013-05-03 05:11:00,
2013-05-03 01:16:00,65.0,34.4,30.17,SE,126,5.0,6.0,32,0.00,,,0.00,WeatherCatV1.15B25,2013-05-03 05:16:00,
2013-05-03 01:21:00,65.0,34.4,30.16,ESE,116,3.0,6.0,32,0.00,,,0.00,WeatherCatV1.15B25,2013-05-03 05:21:00,
2013-05-03 01:26:00,64.9,35.1,30.16,SE,128,3.0,7.0,33,0.00,,,0.00,WeatherCatV1.15B25,2013-05-03 05:26:00,
2013-05-03 01:31:00,64.7,35.7,30.16,ESE,122,3.0,9.0,34,0.00,,,0.00,WeatherCatV1.15B25,2013-05-03 05:31:00,
2013-05-03 01:36:00,64.6,35.6,30.16,ESE,105,4.0,4.0,34,0.00,,,0.00,WeatherCatV1.15B25,2013-05-03 05:36:00,
2013-05-03 01:41:00,64.4,36.1,30.16,ESE,121,3.0,5.0,35,0.00,,,0.00,WeatherCatV1.15B25,2013-05-03 05:41:00,
2013-05-03 01:46:00,64.4,36.1,30.16,ESE,119,5.0,6.0,35,0.00,,,0.00,WeatherCatV1.15B25,2013-05-03 05:46:00,
2013-05-03 01:51:00,64.3,36.8,30.16,SE,129,2.0,7.0,36,0.00,,,0.00,WeatherCatV1.15B25,2013-05-03 05:51:00,
2013-05-03 01:56:00,64.1,36.6,30.16,ESE,121,4.0,6.0,36,0.00,,,0.00,WeatherCatV1.15B25,2013-05-03 05:56:00,
2013-05-03 02:02:00,64.1,36.6,30.16,SE,138,4.0,6.0,36,0.00,,,0.00,WeatherCatV1.15B25,2013-05-03 06:02:00,
2013-05-03 02:07:00,64.0,36.5,30.16,SE,130,0.0,9.0,36,0.00,,,0.00,WeatherCatV1.15B25,2013-05-03 06:07:00,
2013-05-03 02:12:00,63.8,37.0,30.16,ESE,123,6.0,6.0,37,0.00,,,0.00,WeatherCatV1.15B25,2013-05-03 06:12:00,
2013-05-03 02:17:00,63.7,37.6,30.16,SSE,157,0.0,3.0,38,0.00,,,0.00,WeatherCatV1.15B25,2013-05-03 06:17:00,
2013-05-03 02:22:00,63.5,37.4,30.15,SE,127,5.0,7.0,38,0.00,,,0.00,WeatherCatV1.15B25,2013-05-03 06:22:00,
2013-05-03 02:27:00,63.4,37.3,30.16,ESE,116,7.0,9.0,38,0.00,,,0.00,WeatherCatV1.15B25,2013-05-03 06:27:00,
2013-05-03 02:32:00,63.4,37.3,30.16,SE,129,0.0,4.0,38,0.00,,,0.00,WeatherCatV1.15B25,2013-05-03 06:32:00,
2013-05-03 02:37:00,63.2,37.8,30.16,SE,140,3.0,5.0,39,0.00,,,0.00,WeatherCatV1.15B25,2013-05-03 06:37:00,
2013-05-03 02:42:00,63.2,37.8,30.15,ESE,113,4.0,8.0,39,0.00,,,0.00,WeatherCatV1.15B25,2013-05-03 06:42:00,
2013-05-03 02:47:00,63.1,37.7,30.15,ESE,123,6.0,9.0,39,0.00,,,0.00,WeatherCatV1.15B25,2013-05-03 06:47:00,
2013-05-03 02:52:00,63.0,38.3,30.15,ESE,113,4.0,6.0,40,0.00,,,0.00,WeatherCatV1.15B25,2013-05-03 06:52:00,
2013-05-03 02:57:00,62.8,38.1,30.15,ESE,119,5.0,7.0,40,0.00,,,0.00,WeatherCatV1.15B25,2013-05-03 06:57:00,
2013-05-03 03:02:00,62.8,38.7,30.15,SSE,162,4.0,6.0,41,0.00,,,0.00,WeatherCatV1.15B25,2013-05-03 07:02:00,
2013-05-03 03:07:00,62.6,38.6,30.15,SSE,152,5.0,5.0,41,0.00,,,0.00,WeatherCatV1.15B25,2013-05-03 07:07:00,
2013-05-03 03:12:00,62.5,38.5,30.15,SE,126,1.0,8.0,41,0.00,,,0.00,WeatherCatV1.15B25,2013-05-03 07:12:00,
2013-05-03 03:17:00,62.3,38.9,30.15,SSE,157,4.0,8.0,42,0.00,,,0.00,WeatherCatV1.15B25,2013-05-03 07:17:00,
2013-05-03 03:22:00,62.4,39.0,30.15,SSE,148,3.0,9.0,42,0.00,,,0.00,WeatherCatV1.15B25,2013-05-03 07:22:00,
2013-05-03 03:27:00,62.2,38.8,30.15,SE,141,7.0,12.0,42,0.00,,,0.00,WeatherCatV1.15B25,2013-05-03 07:27:00,
2013-05-03 03:32:00,62.3,38.9,30.15,SE,134,2.0,7.0,42,0.00,,,0.00,WeatherCatV1.15B25,2013-05-03 07:32:00,
2013-05-03 03:37:00,62.0,39.2,30.15,East,97,4.0,7.0,43,0.00,,,0.00,WeatherCatV1.15B25,2013-05-03 07:37:00,
2013-05-03 03:42:00,62.0,39.2,30.15,SE,129,4.0,6.0,43,0.00,,,0.00,WeatherCatV1.15B25,2013-05-03 07:42:00,
2013-05-03 03:47:00,61.9,39.2,30.15,ESE,121,0.0,6.0,43,0.00,,,0.00,WeatherCatV1.15B25,2013-05-03 07:47:00,
2013-05-03 03:52:00,61.9,39.2,30.15,ESE,122,3.0,9.0,43,0.00,,,0.00,WeatherCatV1.15B25,2013-05-03 07:52:00,
2013-05-03 03:57:00,61.7,39.0,30.15,SE,128,5.0,7.0,43,0.00,,,0.00,WeatherCatV1.15B25,2013-05-03 07:57:00,
2013-05-03 04:02:00,61.7,39.6,30.15,SE,137,5.0,6.0,44,0.00,,,0.00,WeatherCatV1.15B25,2013-05-03 08:02:00,
2013-05-03 04:07:00,61.6,39.5,30.15,ESE,119,0.0,6.0,44,0.00,,,0.00,WeatherCatV1.15B25,2013-05-03 08:07:00,
2013-05-03 04:12:00,61.5,39.4,30.15,ESE,117,5.0,9.0,44,0.00,,,0.00,WeatherCatV1.15B25,2013-05-03 08:12:00,
2013-05-03 04:17:00,61.3,39.2,30.15,SSE,159,6.0,9.0,44,0.00,,,0.00,WeatherCatV1.15B25,2013-05-03 08:17:00,
2013-05-03 04:22:00,61.4,39.3,30.15,SE,142,1.0,9.0,44,0.00,,,0.00,WeatherCatV1.15B25,2013-05-03 08:22:00,
2013-05-03 04:27:00,61.3,39.8,30.15,ESE,115,5.0,9.0,45,0.00,,,0.00,WeatherCatV1.15B25,2013-05-03 08:27:00,
2013-05-03 04:32:00,61.2,39.7,30.15,SE,134,4.0,6.0,45,0.00,,,0.00,WeatherCatV1.15B25,2013-05-03 08:32:00,
2013-05-03 04:37:00,61.1,39.6,30.15,ESE,117,5.0,7.0,45,0.00,,,0.00,WeatherCatV1.15B25,2013-05-03 08:37:00,
2013-05-03 04:42:00,61.2,39.7,30.15,ESE,121,5.0,5.0,45,0.00,,,0.00,WeatherCatV1.15B25,2013-05-03 08:42:00,
2013-05-03 04:47:00,61.1,39.0,30.15,SE,134,8.0,8.0,44,0.00,,,0.00,WeatherCatV1.15B25,2013-05-03 08:47:00,
2013-05-03 04:52:00,61.2,39.7,30.15,South,190,3.0,6.0,45,0.00,,,0.00,WeatherCatV1.15B25,2013-05-03 08:52:00,
2013-05-03 04:57:00,61.1,39.0,30.15,South,173,0.0,6.0,44,0.00,,,0.00,WeatherCatV1.15B25,2013-05-03 08:57:00,
2013-05-03 05:02:00,61.1,39.0,30.15,SSE,160,0.0,9.0,44,0.00,,,0.00,WeatherCatV1.15B25,2013-05-03 09:02:00,
2013-05-03 05:07:00,60.9,39.4,30.15,SE,146,0.0,6.0,45,0.00,,,0.00,WeatherCatV1.15B25,2013-05-03 09:07:00,
2013-05-03 05:12:00,60.9,38.8,30.15,ESE,115,3.0,5.0,44,0.00,,,0.00,WeatherCatV1.15B25,2013-05-03 09:12:00,
2013-05-03 05:17:00,60.9,38.8,30.15,SE,132,2.0,6.0,44,0.00,,,0.00,WeatherCatV1.15B25,2013-05-03 09:17:00,
2013-05-03 05:22:00,60.8,38.7,30.15,SE,146,4.0,10.0,44,0.00,,,0.00,WeatherCatV1.15B25,2013-05-03 09:22:00,
2013-05-03 05:27:00,60.7,38.7,30.15,SSE,150,0.0,3.0,44,0.00,,,0.00,WeatherCatV1.15B25,2013-05-03 09:27:00,
2013-05-03 05:32:00,60.6,38.6,30.15,ESE,119,4.0,9.0,44,0.00,,,0.00,WeatherCatV1.15B25,2013-05-03 09:32:00,
2013-05-03 05:37:00,60.6,38.0,30.15,SE,125,3.0,7.0,43,0.00,,,0.00,WeatherCatV1.15B25,2013-05-03 09:37:00,
2013-05-03 05:42:00,60.6,38.0,30.15,ESE,119,6.0,6.0,43,0.00,,,0.00,WeatherCatV1.15B25,2013-05-03 09:42:00,
2013-05-03 05:47:00,60.5,37.9,30.15,ESE,117,0.0,7.0,43,0.00,,,0.00,WeatherCatV1.15B25,2013-05-03 09:47:00,
2013-05-03 05:52:00,60.4,37.8,30.15,SE,143,0.0,6.0,43,0.00,,,0.00,WeatherCatV1.15B25,2013-05-03 09:52:00,
2013-05-03 05:57:00,60.3,37.7,30.15,ESE,122,4.0,6.0,43,0.00,,,0.00,WeatherCatV1.15B25,2013-05-03 09:57:00,
2013-05-03 06:02:00,60.0,37.4,30.16,SE,135,5.0,10.0,43,0.00,,,0.00,WeatherCatV1.15B25,2013-05-03 10:02:00,
2013-05-03 06:07:00,59.9,37.9,30.16,SE,140,5.0,11.0,44,0.00,,,0.00,WeatherCatV1.15B25,2013-05-03 10:07:00,
2013-05-03 06:12:00,59.7,37.8,30.16,ESE,119,5.0,7.0,44,0.00,,,0.00,WeatherCatV1.15B25,2013-05-03 10:12:00,
2013-05-03 06:17:00,59.5,37.6,30.16,ESE,121,3.0,9.0,44,0.00,,,0.00,WeatherCatV1.15B25,2013-05-03 10:17:00,
2013-05-03 06:22:00,59.4,37.5,30.16,SE,142,2.0,7.0,44,0.00,,,0.00,WeatherCatV1.15B25,2013-05-03 10:22:00,
2013-05-03 06:27:00,59.4,38.1,30.16,ESE,111,5.0,7.0,45,0.00,,,0.00,WeatherCatV1.15B25,2013-05-03 10:27:00,
2013-05-03 06:32:00,59.4,38.1,30.16,ESE,115,3.0,7.0,45,0.00,,,0.00,WeatherCatV1.15B25,2013-05-03 10:32:00,
2013-05-03 06:37:00,59.3,38.0,30.16,SE,128,11.0,11.0,45,0.00,,,0.00,WeatherCatV1.15B25,2013-05-03 10:37:00,
2013-05-03 06:42:00,59.3,38.0,30.17,SE,140,4.0,7.0,45,0.00,,,0.00,WeatherCatV1.15B25,2013-05-03 10:42:00,
2013-05-03 06:47:00,59.3,37.4,30.16,SSE,164,4.0,12.0,44,0.00,,,0.00,WeatherCatV1.15B25,2013-05-03 10:47:00,
2013-05-03 06:52:00,59.5,37.6,30.16,SE,128,4.0,7.0,44,0.00,,,0.00,WeatherCatV1.15B25,2013-05-03 10:52:00,
2013-05-03 06:57:00,59.4,37.5,30.16,SE,124,4.0,7.0,44,0.00,,,0.00,WeatherCatV1.15B25,2013-05-03 10:57:00,
2013-05-03 07:02:00,59.6,37.7,30.17,ESE,108,0.0,9.0,44,0.00,,,0.00,WeatherCatV1.15B25,2013-05-03 11:02:00,
2013-05-03 07:07:00,59.7,37.8,30.17,SE,130,0.0,6.0,44,0.00,,,0.00,WeatherCatV1.15B25,2013-05-03 11:07:00,
2013-05-03 07:12:00,59.9,37.3,30.17,SSE,153,3.0,8.0,43,0.00,,,0.00,WeatherCatV1.15B25,2013-05-03 11:12:00,
2013-05-03 07:17:00,60.1,37.5,30.17,SE,124,5.0,7.0,43,0.00,,,0.00,WeatherCatV1.15B25,2013-05-03 11:17:00,
2013-05-03 07:22:00,60.3,37.1,30.17,ESE,111,4.0,6.0,42,0.00,,,0.00,WeatherCatV1.15B25,2013-05-03 11:22:00,
2013-05-03 07:27:00,60.4,37.2,30.17,SE,138,6.0,7.0,42,0.00,,,0.00,WeatherCatV1.15B25,2013-05-03 11:27:00,
2013-05-03 07:32:00,60.6,37.4,30.17,ESE,122,6.0,9.0,42,0.00,,,0.00,WeatherCatV1.15B25,2013-05-03 11:32:00,
2013-05-03 07:37:00,60.8,37.0,30.17,SE,127,4.0,6.0,41,0.00,,,0.00,WeatherCatV1.15B25,2013-05-03 11:37:00,
2013-05-03 07:42:00,60.8,37.0,30.17,SE,126,5.0,6.0,41,0.00,,,0.00,WeatherCatV1.15B25,2013-05-03 11:42:00,
2013-05-03 07:47:00,61.0,36.5,30.18,ESE,110,3.0,6.0,40,0.00,,,0.00,WeatherCatV1.15B25,2013-05-03 11:47:00,
2013-05-03 07:52:00,61.1,36.6,30.18,SSE,148,5.0,6.0,40,0.00,,,0.00,WeatherCatV1.15B25,2013-05-03 11:52:00,
2013-05-03 07:57:00,61.2,36.7,30.17,ESE,121,7.0,7.0,40,0.00,,,0.00,WeatherCatV1.15B25,2013-05-03 11:57:00,
2013-05-03 08:02:00,61.4,35.6,30.18,SSE,156,1.0,8.0,38,0.00,,,0.00,WeatherCatV1.15B25,2013-05-03 12:02:00,
2013-05-03 08:07:00,61.7,36.5,30.18,SSE,150,3.0,5.0,39,0.00,,,0.00,WeatherCatV1.15B25,2013-05-03 12:07:00,
2013-05-03 08:12:00,61.8,36.6,30.18,SE,128,1.0,5.0,39,0.00,,,0.00,WeatherCatV1.15B25,2013-05-03 12:12:00,
2013-05-03 08:17:00,62.0,35.4,30.18,SE,126,0.0,5.0,37,0.00,,,0.00,WeatherCatV1.15B25,2013-05-03 12:17:00,
2013-05-03 08:22:00,62.3,35.7,30.18,SE,130,6.0,6.0,37,0.00,,,0.00,WeatherCatV1.15B25,2013-05-03 12:22:00,
2013-05-03 08:27:00,62.6,36.0,30.18,East,95,0.0,4.0,37,0.00,,,0.00,WeatherCatV1.15B25,2013-05-03 12:27:00,
2013-05-03 08:32:00,62.9,36.2,30.18,SE,128,0.0,4.0,37,0.00,,,0.00,WeatherCatV1.15B25,2013-05-03 12:32:00,
2013-05-03 08:37:00,63.3,35.9,30.18,SE,127,0.0,4.0,36,0.00,,,0.00,WeatherCatV1.15B25,2013-05-03 12:37:00,
2013-05-03 08:42:00,63.8,35.6,30.18,SE,140,8.0,8.0,35,0.00,,,0.00,WeatherCatV1.15B25,2013-05-03 12:42:00,
2013-05-03 08:47:00,64.1,36.6,30.18,SSE,153,0.0,5.0,36,0.00,,,0.00,WeatherCatV1.15B25,2013-05-03 12:47:00,
2013-05-03 08:52:00,64.6,35.6,30.18,SSW,205,3.0,3.0,34,0.00,,,0.00,WeatherCatV1.15B25,2013-05-03 12:52:00,
2013-05-03 08:57:00,65.0,35.2,30.18,SSE,152,7.0,10.0,33,0.00,,,0.00,WeatherCatV1.15B25,2013-05-03 12:57:00,
2013-05-03 09:02:00,65.1,35.3,30.19,ESE,111,3.0,3.0,33,0.00,,,0.00,WeatherCatV1.15B25,2013-05-03 13:02:00,
2013-05-03 09:07:00,65.5,34.1,30.19,SE,132,3.0,7.0,31,0.00,,,0.00,WeatherCatV1.15B25,2013-05-03 13:07:00,
2013-05-03 09:12:00,65.9,35.2,30.19,SE,127,3.0,5.0,32,0.00,,,0.00,WeatherCatV1.15B25,2013-05-03 13:12:00,
2013-05-03 09:17:00,66.4,35.6,30.19,East,90,0.0,0.0,32,0.00,,,0.00,WeatherCatV1.15B25,2013-05-03 13:17:00,
2013-05-03 09:22:00,66.7,36.7,30.19,SSE,153,3.0,5.0,33,0.00,,,0.00,WeatherCatV1.15B25,2013-05-03 13:22:00,
2013-05-03 09:27:00,66.9,34.5,30.19,East,92,2.0,3.0,30,0.00,,,0.00,WeatherCatV1.15B25,2013-05-03 13:27:00,
2013-05-03 09:32:00,67.3,34.8,30.19,East,94,2.0,3.0,30,0.00,,,0.00,WeatherCatV1.15B25,2013-05-03 13:32:00,
2013-05-03 09:37:00,67.4,34.9,30.19,SSE,155,3.0,6.0,30,0.00,,,0.00,WeatherCatV1.15B25,2013-05-03 13:37:00,
2013-05-03 09:42:00,67.6,35.1,30.19,SE,132,3.0,5.0,30,0.00,,,0.00,WeatherCatV1.15B25,2013-05-03 13:42:00,
2013-05-03 09:47:00,68.1,34.6,30.19,SE,128,0.0,4.0,29,0.00,,,0.00,WeatherCatV1.15B25,2013-05-03 13:47:00,
2013-05-03 09:52:00,68.1,33.8,30.19,ESE,118,4.0,10.0,28,0.00,,,0.00,WeatherCatV1.15B25,2013-05-03 13:52:00,
2013-05-03 09:57:00,68.1,33.8,30.19,ESE,113,4.0,5.0,28,0.00,,,0.00,WeatherCatV1.15B25,2013-05-03 13:57:00,
2013-05-03 10:02:00,68.1,34.6,30.19,SE,128,2.0,5.0,29,0.00,,,0.00,WeatherCatV1.15B25,2013-05-03 14:02:00,
2013-05-03 10:07:00,68.1,35.5,30.19,SE,143,4.0,7.0,30,0.00,,,0.00,WeatherCatV1.15B25,2013-05-03 14:07:00,
2013-05-03 10:12:00,68.2,38.8,30.19,SE,145,6.0,8.0,34,0.00,,,0.00,WeatherCatV1.15B25,2013-05-03 14:12:00,
2013-05-03 10:17:00,68.7,36.8,30.18,ESE,123,5.0,7.0,31,0.00,,,0.00,WeatherCatV1.15B25,2013-05-03 14:17:00,
2013-05-03 10:22:00,68.7,35.2,30.19,SE,131,4.0,10.0,29,0.00,,,0.00,WeatherCatV1.15B25,2013-05-03 14:22:00,
2013-05-03 10:27:00,69.2,33.8,30.19,ESE,113,6.0,6.0,27,0.00,,,0.00,WeatherCatV1.15B25,2013-05-03 14:27:00,
2013-05-03 10:32:00,69.7,36.0,30.18,SE,146,0.0,4.0,29,0.00,,,0.00,WeatherCatV1.15B25,2013-05-03 14:32:00,
2013-05-03 10:37:00,70.2,34.6,30.18,ESE,118,4.0,10.0,27,0.00,,,0.00,WeatherCatV1.15B25,2013-05-03 14:37:00,
2013-05-03 10:42:00,70.7,32.1,30.18,SSE,149,4.0,9.0,24,0.00,,,0.00,WeatherCatV1.15B25,2013-05-03 14:42:00,
2013-05-03 10:47:00,70.5,34.0,30.18,ESE,115,4.0,12.0,26,0.00,,,0.00,WeatherCatV1.15B25,2013-05-03 14:47:00,
2013-05-03 10:52:00,70.2,34.6,30.18,SE,145,7.0,7.0,27,0.00,,,0.00,WeatherCatV1.15B25,2013-05-03 14:52:00,
2013-05-03 10:57:00,70.8,34.2,30.19,SSE,151,3.0,12.0,26,0.00,,,0.00,WeatherCatV1.15B25,2013-05-03 14:57:00,
2013-05-03 11:02:00,70.7,31.1,30.18,ESE,105,0.0,6.0,23,0.00,,,0.00,WeatherCatV1.15B25,2013-05-03 15:02:00,
2013-05-03 11:07:00,71.3,34.6,30.18,East,84,2.0,4.0,26,0.00,,,0.00,WeatherCatV1.15B25,2013-05-03 15:07:00,
2013-05-03 11:12:00,71.9,35.1,30.18,SE,128,2.0,7.0,26,0.00,,,0.00,WeatherCatV1.15B25,2013-05-03 15:12:00,
2013-05-03 11:17:00,72.3,35.5,30.18,SE,126,5.0,9.0,26,0.00,,,0.00,WeatherCatV1.15B25,2013-05-03 15:17:00,
2013-05-03 11:22:00,72.4,35.6,30.18,East,101,5.0,6.0,26,0.00,,,0.00,WeatherCatV1.15B25,2013-05-03 15:22:00,
2013-05-03 11:27:00,72.3,35.5,30.18,SSE,153,3.0,9.0,26,0.00,,,0.00,WeatherCatV1.15B25,2013-05-03 15:27:00,
2013-05-03 11:32:00,72.0,34.2,30.18,SE,130,4.0,7.0,25,0.00,,,0.00,WeatherCatV1.15B25,2013-05-03 15:32:00,
2013-05-03 11:37:00,72.2,34.4,30.18,East,92,4.0,5.0,25,0.00,,,0.00,WeatherCatV1.15B25,2013-05-03 15:37:00,
2013-05-03 11:42:00,72.6,37.6,30.18,ESE,112,0.0,4.0,28,0.00,,,0.00,WeatherCatV1.15B25,2013-05-03 15:42:00,
2013-05-03 11:47:00,72.6,35.7,30.18,SE,128,4.0,9.0,26,0.00,,,0.00,WeatherCatV1.15B25,2013-05-03 15:47:00,
2013-05-03 11:52:00,72.8,34.9,30.18,SSE,153,8.0,10.0,25,0.00,,,0.00,WeatherCatV1.15B25,2013-05-03 15:52:00,
2013-05-03 11:57:00,72.4,33.6,30.18,SE,127,6.0,9.0,24,0.00,,,0.00,WeatherCatV1.15B25,2013-05-03 15:57:00,
2013-05-03 12:02:00,72.5,35.7,30.18,SE,130,3.0,11.0,26,0.00,,,0.00,WeatherCatV1.15B25,2013-05-03 16:02:00,
2013-05-03 12:07:00,72.7,33.8,30.18,SE,133,3.0,6.0,24,0.00,,,0.00,WeatherCatV1.15B25,2013-05-03 16:07:00,
2013-05-03 12:12:00,73.1,34.2,30.17,SE,134,5.0,11.0,24,0.00,,,0.00,WeatherCatV1.15B25,2013-05-03 16:12:00,
2013-05-03 12:17:00,73.4,35.4,30.17,East,98,6.0,7.0,25,0.00,,,0.00,WeatherCatV1.15B25,2013-05-03 16:17:00,
2013-05-03 12:22:00,73.2,38.1,30.17,SE,131,2.0,6.0,28,0.00,,,0.00,WeatherCatV1.15B25,2013-05-03 16:22:00,
2013-05-03 12:27:00,74.0,35.9,30.17,ESE,121,3.0,7.0,25,0.00,,,0.00,WeatherCatV1.15B25,2013-05-03 16:27:00,
2013-05-03 12:32:00,73.5,34.5,30.17,SE,125,4.0,7.0,24,0.00,,,0.00,WeatherCatV1.15B25,2013-05-03 16:32:00,
2013-05-03 12:37:00,73.7,35.7,30.16,SSE,154,5.0,6.0,25,0.00,,,0.00,WeatherCatV1.15B25,2013-05-03 16:37:00,
2013-05-03 12:42:00,73.8,36.8,30.16,SSE,147,5.0,15.0,26,0.00,,,0.00,WeatherCatV1.15B25,2013-05-03 16:42:00,
2013-05-03 12:47:00,74.0,37.9,30.16,SE,126,3.0,6.0,27,0.00,,,0.00,WeatherCatV1.15B25,2013-05-03 16:47:00,
2013-05-03 12:52:00,74.0,36.9,30.16,ESE,121,0.0,2.0,26,0.00,,,0.00,WeatherCatV1.15B25,2013-05-03 16:52:00,
2013-05-03 12:57:00,74.6,34.3,30.16,SE,125,7.0,8.0,23,0.00,,,0.00,WeatherCatV1.15B25,2013-05-03 16:57:00,
2013-05-03 13:02:00,74.8,42.1,30.15,ENE,76,0.0,4.0,31,0.00,,,0.00,WeatherCatV1.15B25,2013-05-03 17:02:00,
2013-05-03 13:07:00,74.9,35.7,30.15,SE,130,3.0,11.0,24,0.00,,,0.00,WeatherCatV1.15B25,2013-05-03 17:07:00,
2013-05-03 13:13:00,74.5,41.0,30.15,East,85,3.0,8.0,30,0.00,,,0.00,WeatherCatV1.15B25,2013-05-03 17:13:00,
2013-05-03 13:18:00,74.5,39.2,30.15,SE,136,4.0,10.0,28,0.00,,,0.00,WeatherCatV1.15B25,2013-05-03 17:18:00,
2013-05-03 13:23:00,74.8,41.3,30.15,East,101,0.0,4.0,30,0.00,,,0.00,WeatherCatV1.15B25,2013-05-03 17:23:00,
2013-05-03 13:28:00,75.3,40.8,30.14,East,101,4.0,9.0,29,0.00,,,0.00,WeatherCatV1.15B25,2013-05-03 17:28:00,
2013-05-03 13:33:00,74.4,42.6,30.15,ESE,106,6.0,11.0,32,0.00,,,0.00,WeatherCatV1.15B25,2013-05-03 17:33:00,
2013-05-03 13:38:00,75.2,42.5,30.14,SSW,194,0.0,6.0,31,0.00,,,0.00,WeatherCatV1.15B25,2013-05-03 17:38:00,
2013-05-03 13:43:00,75.7,45.3,30.14,ESE,106,1.0,10.0,34,0.00,,,0.00,WeatherCatV1.15B25,2013-05-03 17:43:00,
2013-05-03 13:48:00,74.7,38.5,30.14,ESE,109,4.0,15.0,27,0.00,,,0.00,WeatherCatV1.15B25,2013-05-03 17:48:00,
2013-05-03 13:53:00,75.2,39.8,30.14,East,92,0.0,5.0,28,0.00,,,0.00,WeatherCatV1.15B25,2013-05-03 17:53:00,
2013-05-03 13:58:00,75.9,45.5,30.14,ENE,78,0.0,6.0,34,0.00,,,0.00,WeatherCatV1.15B25,2013-05-03 17:58:00,
2013-05-03 14:03:00,75.6,42.0,30.14,East,83,5.0,5.0,30,0.00,,,0.00,WeatherCatV1.15B25,2013-05-03 18:03:00,
2013-05-03 14:08:00,75.8,42.1,30.14,SSE,167,5.0,12.0,30,0.00,,,0.00,WeatherCatV1.15B25,2013-05-03 18:08:00,
2013-05-03 14:13:00,76.0,44.0,30.14,SE,130,6.0,6.0,32,0.00,,,0.00,WeatherCatV1.15B25,2013-05-03 18:13:00,
2013-05-03 14:18:00,76.0,39.6,30.14,ESE,115,5.0,10.0,27,0.00,,,0.00,WeatherCatV1.15B25,2013-05-03 18:18:00,
2013-05-03 14:23:00,75.9,42.2,30.14,ESE,108,0.0,11.0,30,0.00,,,0.00,WeatherCatV1.15B25,2013-05-03 18:23:00,
2013-05-03 14:28:00,75.9,40.4,30.13,SE,137,3.0,9.0,28,0.00,,,0.00,WeatherCatV1.15B25,2013-05-03 18:28:00,
2013-05-03 14:33:00,76.2,44.2,30.13,SE,134,3.0,11.0,32,0.00,,,0.00,WeatherCatV1.15B25,2013-05-03 18:33:00,
2013-05-03 14:38:00,76.8,41.2,30.13,SE,132,2.0,5.0,28,0.00,,,0.00,WeatherCatV1.15B25,2013-05-03 18:38:00,
2013-05-03 14:43:00,77.2,40.6,30.13,SSE,161,3.0,5.0,27,0.00,,,0.00,WeatherCatV1.15B25,2013-05-03 18:43:00,
2013-05-03 14:48:00,76.6,43.7,30.13,SE,136,5.0,6.0,31,0.00,,,0.00,WeatherCatV1.15B25,2013-05-03 18:48:00,
2013-05-03 14:53:00,77.0,42.3,30.13,NE,51,0.0,12.0,29,0.00,,,0.00,WeatherCatV1.15B25,2013-05-03 18:53:00,
2013-05-03 14:58:00,77.4,39.8,30.13,SE,125,0.0,5.0,26,0.00,,,0.00,WeatherCatV1.15B25,2013-05-03 18:58:00,
2013-05-03 15:03:00,77.9,46.5,30.13,SE,136,12.0,12.0,33,0.00,,,0.00,WeatherCatV1.15B25,2013-05-03 19:03:00,
2013-05-03 15:08:00,77.6,42.8,30.13,East,99,5.0,11.0,29,0.00,,,0.00,WeatherCatV1.15B25,2013-05-03 19:08:00,
2013-05-03 15:13:00,77.4,39.8,30.12,East,100,5.0,11.0,26,0.00,,,0.00,WeatherCatV1.15B25,2013-05-03 19:13:00,
2013-05-03 15:18:00,76.9,41.3,30.12,East,101,7.0,11.0,28,0.00,,,0.00,WeatherCatV1.15B25,2013-05-03 19:18:00,
2013-05-03 15:23:00,76.9,41.3,30.11,ESE,123,7.0,12.0,28,0.00,,,0.00,WeatherCatV1.15B25,2013-05-03 19:23:00,
2013-05-03 15:28:00,77.0,40.4,30.12,East,90,11.0,11.0,27,0.00,,,0.00,WeatherCatV1.15B25,2013-05-03 19:28:00,
2013-05-03 15:33:00,77.3,40.7,30.12,ESE,111,6.0,6.0,27,0.00,,,0.00,WeatherCatV1.15B25,2013-05-03 19:33:00,
2013-05-03 15:38:00,77.7,39.1,30.11,ESE,115,3.0,6.0,25,0.00,,,0.00,WeatherCatV1.15B25,2013-05-03 19:38:00,
2013-05-03 15:43:00,77.4,37.8,30.11,ESE,102,9.0,12.0,24,0.00,,,0.00,WeatherCatV1.15B25,2013-05-03 19:43:00,
2013-05-03 15:48:00,77.2,38.6,30.11,SE,144,5.0,12.0,25,0.00,,,0.00,WeatherCatV1.15B25,2013-05-03 19:48:00,
2013-05-03 15:53:00,77.6,40.0,30.11,SE,128,8.0,13.0,26,0.00,,,0.00,WeatherCatV1.15B25,2013-05-03 19:53:00,
2013-05-03 15:58:00,77.4,38.8,30.11,SE,138,5.0,8.0,25,0.00,,,0.00,WeatherCatV1.15B25,2013-05-03 19:58:00,
2013-05-03 16:03:00,77.6,40.0,30.11,NNW,345,3.0,10.0,26,0.00,,,0.00,WeatherCatV1.15B25,2013-05-03 20:03:00,
2013-05-03 16:08:00,77.5,39.9,30.11,SE,130,17.0,17.0,26,0.00,,,0.00,WeatherCatV1.15B25,2013-05-03 20:08:00,
2013-05-03 16:13:00,77.3,38.7,30.10,SE,136,10.0,10.0,25,0.00,,,0.00,WeatherCatV1.15B25,2013-05-03 20:13:00,
2013-05-03 16:18:00,77.7,38.0,30.10,SE,131,10.0,12.0,24,0.00,,,0.00,WeatherCatV1.15B25,2013-05-03 20:18:00,
2013-05-03 16:23:00,77.6,39.0,30.10,SSE,155,2.0,8.0,25,0.00,,,0.00,WeatherCatV1.15B25,2013-05-03 20:23:00,
2013-05-03 16:28:00,77.7,36.9,30.10,South,172,9.0,9.0,23,0.00,,,0.00,WeatherCatV1.15B25,2013-05-03 20:28:00,
2013-05-03 16:33:00,78.2,37.4,30.10,SE,126,5.0,10.0,23,0.00,,,0.00,WeatherCatV1.15B25,2013-05-03 20:33:00,
2013-05-03 16:38:00,77.7,36.9,30.10,ESE,106,1.0,9.0,23,0.00,,,0.00,WeatherCatV1.15B25,2013-05-03 20:38:00,
2013-05-03 16:43:00,77.8,39.1,30.10,ESE,109,1.0,9.0,25,0.00,,,0.00,WeatherCatV1.15B25,2013-05-03 20:43:00,
2013-05-03 16:48:00,77.7,38.0,30.10,ESE,111,1.0,7.0,24,0.00,,,0.00,WeatherCatV1.15B25,2013-05-03 20:48:00,
2013-05-03 16:53:00,78.0,39.3,30.10,SE,125,1.0,5.0,25,0.00,,,0.00,WeatherCatV1.15B25,2013-05-03 20:53:00,
2013-05-03 16:58:00,78.1,38.4,30.10,SE,139,8.0,10.0,24,0.00,,,0.00,WeatherCatV1.15B25,2013-05-03 20:58:00,
2013-05-03 17:03:00,77.7,36.9,30.10,SSE,152,1.0,9.0,23,0.00,,,0.00,WeatherCatV1.15B25,2013-05-03 21:03:00,
2013-05-03 17:08:00,77.6,36.8,30.10,SE,134,5.0,12.0,23,0.00,,,0.00,WeatherCatV1.15B25,2013-05-03 21:08:00,
2013-05-03 17:13:00,77.5,37.8,30.10,ESE,109,4.0,7.0,24,0.00,,,0.00,WeatherCatV1.15B25,2013-05-03 21:13:00,
2013-05-03 17:18:00,77.7,36.9,30.10,ESE,119,4.0,11.0,23,0.00,,,0.00,WeatherCatV1.15B25,2013-05-03 21:18:00,
2013-05-03 17:23:00,78.0,38.3,30.10,SE,124,5.0,8.0,24,0.00,,,0.00,WeatherCatV1.15B25,2013-05-03 21:23:00,
2013-05-03 17:28:00,78.0,40.3,30.09,SE,134,7.0,9.0,26,0.00,,,0.00,WeatherCatV1.15B25,2013-05-03 21:28:00,
2013-05-03 17:33:00,77.7,39.1,30.09,ESE,113,0.0,6.0,25,0.00,,,0.00,WeatherCatV1.15B25,2013-05-03 21:33:00,
2013-05-03 17:38:00,77.9,39.2,30.10,SE,124,5.0,10.0,25,0.00,,,0.00,WeatherCatV1.15B25,2013-05-03 21:38:00,
2013-05-03 17:43:00,77.6,37.9,30.09,East,98,5.0,6.0,24,0.00,,,0.00,WeatherCatV1.15B25,2013-05-03 21:43:00,
2013-05-03 17:48:00,77.3,38.7,30.09,SE,128,3.0,9.0,25,0.00,,,0.00,WeatherCatV1.15B25,2013-05-03 21:48:00,
2013-05-03 17:53:00,77.3,37.7,30.09,ESE,119,0.0,10.0,24,0.00,,,0.00,WeatherCatV1.15B25,2013-05-03 21:53:00,
2013-05-03 17:58:00,77.2,36.5,30.09,SE,130,4.0,12.0,23,0.00,,,0.00,WeatherCatV1.15B25,2013-05-03 21:58:00,
2013-05-03 18:03:00,77.2,38.6,30.09,SE,130,7.0,7.0,25,0.00,,,0.00,WeatherCatV1.15B25,2013-05-03 22:03:00,
2013-05-03 18:08:00,77.2,37.6,30.09,SSE,168,0.0,13.0,24,0.00,,,0.00,WeatherCatV1.15B25,2013-05-03 22:08:00,
2013-05-03 18:13:00,77.3,37.7,30.09,East,96,10.0,10.0,24,0.00,,,0.00,WeatherCatV1.15B25,2013-05-03 22:13:00,
2013-05-03 18:18:00,77.3,37.7,30.09,SSE,150,11.0,11.0,24,0.00,,,0.00,WeatherCatV1.15B25,2013-05-03 22:18:00,
2013-05-03 18:23:00,77.2,37.6,30.09,ESE,122,1.0,12.0,24,0.00,,,0.00,WeatherCatV1.15B25,2013-05-03 22:23:00,
2013-05-03 18:28:00,77.0,38.5,30.09,ESE,107,6.0,10.0,25,0.00,,,0.00,WeatherCatV1.15B25,2013-05-03 22:28:00,
2013-05-03 18:33:00,76.7,38.2,30.10,ESE,123,5.0,10.0,25,0.00,,,0.00,WeatherCatV1.15B25,2013-05-03 22:33:00,
2013-05-03 18:38:00,76.8,39.3,30.10,SSE,150,3.0,7.0,26,0.00,,,0.00,WeatherCatV1.15B25,2013-05-03 22:38:00,
2013-05-03 18:43:00,76.7,38.2,30.10,ESE,121,2.0,7.0,25,0.00,,,0.00,WeatherCatV1.15B25,2013-05-03 22:43:00,
2013-05-03 18:48:00,76.6,40.1,30.09,SE,125,0.0,1.0,27,0.00,,,0.00,WeatherCatV1.15B25,2013-05-03 22:48:00,
2013-05-03 18:53:00,76.5,40.0,30.09,SE,132,5.0,5.0,27,0.00,,,0.00,WeatherCatV1.15B25,2013-05-03 22:53:00,
2013-05-03 18:58:00,76.3,39.8,30.10,East,99,4.0,4.0,27,0.00,,,0.00,WeatherCatV1.15B25,2013-05-03 22:58:00,
2013-05-03 19:03:00,76.1,37.7,30.10,ESE,114,5.0,9.0,25,0.00,,,0.00,WeatherCatV1.15B25,2013-05-03 23:03:00,
2013-05-03 19:08:00,75.8,37.5,30.10,SE,128,2.0,11.0,25,0.00,,,0.00,WeatherCatV1.15B25,2013-05-03 23:08:00,
2013-05-03 19:13:00,75.6,38.3,30.10,ESE,120,0.0,6.0,26,0.00,,,0.00,WeatherCatV1.15B25,2013-05-03 23:13:00,
2013-05-03 19:18:00,75.2,39.8,30.10,ESE,109,0.0,9.0,28,0.00,,,0.00,WeatherCatV1.15B25,2013-05-03 23:18:00,
2013-05-03 19:24:00,74.8,38.6,30.10,ESE,122,0.0,5.0,27,0.00,,,0.00,WeatherCatV1.15B25,2013-05-03 23:24:00,
2013-05-03 19:29:00,74.8,37.6,30.10,SSE,167,1.0,4.0,26,0.00,,,0.00,WeatherCatV1.15B25,2013-05-03 23:29:00,
2013-05-03 19:34:00,74.6,39.3,30.10,SE,146,4.0,5.0,28,0.00,,,0.00,WeatherCatV1.15B25,2013-05-03 23:34:00,
2013-05-03 19:39:00,74.5,38.3,30.10,SE,135,0.0,6.0,27,0.00,,,0.00,WeatherCatV1.15B25,2013-05-03 23:39:00,
2013-05-03 19:44:00,74.4,38.2,30.10,ESE,121,3.0,6.0,27,0.00,,,0.00,WeatherCatV1.15B25,2013-05-03 23:44:00,
2013-05-03 19:49:00,74.1,38.9,30.11,ESE,117,1.0,6.0,28,0.00,,,0.00,WeatherCatV1.15B25,2013-05-03 23:49:00,
2013-05-03 19:54:00,74.0,38.8,30.11,SE,129,0.0,3.0,28,0.00,,,0.00,WeatherCatV1.15B25,2013-05-03 23:54:00,
2013-05-03 19:59:00,73.9,38.7,30.11,SE,128,2.0,6.0,28,0.00,,,0.00,WeatherCatV1.15B25,2013-05-03 23:59:00,
2013-05-03 20:04:00,73.6,38.5,30.11,ESE,123,4.0,5.0,28,0.00,,,0.00,WeatherCatV1.15B25,2013-05-04 00:04:00,
2013-05-03 20:09:00,73.7,38.6,30.11,ESE,114,0.0,4.0,28,0.00,,,0.00,WeatherCatV1.15B25,2013-05-04 00:09:00,
2013-05-03 20:14:00,73.4,38.3,30.11,SSE,147,0.0,3.0,28,0.00,,,0.00,WeatherCatV1.15B25,2013-05-04 00:14:00,
2013-05-03 20:19:00,73.2,39.0,30.11,SE,138,0.0,5.0,29,0.00,,,0.00,WeatherCatV1.15B25,2013-05-04 00:19:00,
2013-05-03 20:24:00,72.8,39.5,30.11,SE,138,0.0,0.0,30,0.00,,,0.00,WeatherCatV1.15B25,2013-05-04 00:24:00,
2013-05-03 20:29:00,72.3,40.0,30.11,SE,129,0.0,5.0,31,0.00,,,0.00,WeatherCatV1.15B25,2013-05-04 00:29:00,
2013-05-03 20:34:00,71.9,40.4,30.11,SSE,160,0.0,0.0,32,0.00,,,0.00,WeatherCatV1.15B25,2013-05-04 00:34:00,
2013-05-03 20:39:00,71.4,40.0,30.12,SSE,160,0.0,0.0,32,0.00,,,0.00,WeatherCatV1.15B25,2013-05-04 00:39:00,
2013-05-03 20:44:00,71.3,39.9,30.12,SE,130,0.0,0.0,32,0.00,,,0.00,WeatherCatV1.15B25,2013-05-04 00:44:00,
2013-05-03 20:49:00,71.1,41.3,30.12,SE,143,2.0,4.0,34,0.00,,,0.00,WeatherCatV1.15B25,2013-05-04 00:49:00,
2013-05-03 20:54:00,71.0,40.4,30.12,SE,124,2.0,3.0,33,0.00,,,0.00,WeatherCatV1.15B25,2013-05-04 00:54:00,
2013-05-03 20:59:00,71.1,39.7,30.12,SE,125,0.0,5.0,32,0.00,,,0.00,WeatherCatV1.15B25,2013-05-04 00:59:00,
2013-05-03 21:04:00,70.9,41.1,30.12,ESE,116,3.0,5.0,34,0.00,,,0.00,WeatherCatV1.15B25,2013-05-04 01:04:00,
2013-05-03 21:09:00,70.8,41.0,30.12,ESE,115,0.0,5.0,34,0.00,,,0.00,WeatherCatV1.15B25,2013-05-04 01:09:00,
2013-05-03 21:14:00,70.9,40.3,30.12,ESE,106,0.0,2.0,33,0.00,,,0.00,WeatherCatV1.15B25,2013-05-04 01:14:00,
2013-05-03 21:19:00,70.4,40.7,30.12,SE,130,0.0,5.0,34,0.00,,,0.00,WeatherCatV1.15B25,2013-05-04 01:19:00,
2013-05-03 21:24:00,70.1,40.4,30.12,SE,129,0.0,4.0,34,0.00,,,0.00,WeatherCatV1.15B25,2013-05-04 01:24:00,
2013-05-03 21:29:00,70.1,40.4,30.12,SE,130,2.0,5.0,34,0.00,,,0.00,WeatherCatV1.15B25,2013-05-04 01:29:00,
2013-05-03 21:34:00,70.0,41.1,30.12,SE,129,3.0,6.0,35,0.00,,,0.00,WeatherCatV1.15B25,2013-05-04 01:34:00,
2013-05-03 21:39:00,69.9,41.0,30.12,SE,140,2.0,5.0,35,0.00,,,0.00,WeatherCatV1.15B25,2013-05-04 01:39:00,
2013-05-03 21:44:00,69.8,40.9,30.12,ESE,118,2.0,6.0,35,0.00,,,0.00,WeatherCatV1.15B25,2013-05-04 01:44:00,
2013-05-03 21:49:00,69.6,40.7,30.12,ESE,121,3.0,5.0,35,0.00,,,0.00,WeatherCatV1.15B25,2013-05-04 01:49:00,
2013-05-03 21:54:00,69.3,41.2,30.12,SE,132,0.0,0.0,36,0.00,,,0.00,WeatherCatV1.15B25,2013-05-04 01:54:00,
2013-05-03 21:59:00,69.2,41.1,30.13,SE,128,4.0,4.0,36,0.00,,,0.00,WeatherCatV1.15B25,2013-05-04 01:59:00,
2013-05-03 22:04:00,69.0,41.6,30.12,ESE,122,2.0,4.0,37,0.00,,,0.00,WeatherCatV1.15B25,2013-05-04 02:04:00,
2013-05-03 22:09:00,68.8,41.5,30.12,SSE,154,4.0,4.0,37,0.00,,,0.00,WeatherCatV1.15B25,2013-05-04 02:09:00,
2013-05-03 22:14:00,68.8,41.5,30.12,ESE,119,3.0,4.0,37,0.00,,,0.00,WeatherCatV1.15B25,2013-05-04 02:14:00,
2013-05-03 22:19:00,68.6,42.0,30.12,SE,126,3.0,3.0,38,0.00,,,0.00,WeatherCatV1.15B25,2013-05-04 02:19:00,
2013-05-03 22:24:00,68.4,41.8,30.13,SE,126,1.0,2.0,38,0.00,,,0.00,WeatherCatV1.15B25,2013-05-04 02:24:00,
2013-05-03 22:29:00,68.0,41.4,30.13,SE,133,0.0,0.0,38,0.00,,,0.00,WeatherCatV1.15B25,2013-05-04 02:29:00,
2013-05-03 22:34:00,67.9,42.0,30.13,SE,142,3.0,3.0,39,0.00,,,0.00,WeatherCatV1.15B25,2013-05-04 02:34:00,
2013-05-03 22:39:00,67.8,41.3,30.13,SE,143,1.0,2.0,38,0.00,,,0.00,WeatherCatV1.15B25,2013-05-04 02:39:00,
2013-05-03 22:44:00,67.7,41.8,30.13,SE,145,0.0,0.0,39,0.00,,,0.00,WeatherCatV1.15B25,2013-05-04 02:44:00,
2013-05-03 22:49:00,67.4,41.6,30.13,SE,134,0.0,0.0,39,0.00,,,0.00,WeatherCatV1.15B25,2013-05-04 02:49:00,
2013-05-03 22:54:00,66.9,42.4,30.13,SE,134,0.0,0.0,41,0.00,,,0.00,WeatherCatV1.15B25,2013-05-04 02:54:00,
2013-05-03 22:59:00,66.5,42.1,30.13,SE,135,0.0,1.0,41,0.00,,,0.00,WeatherCatV1.15B25,2013-05-04 02:59:00,
2013-05-03 23:04:00,66.3,42.5,30.13,SE,135,2.0,3.0,42,0.00,,,0.00,WeatherCatV1.15B25,2013-05-04 03:04:00,
2013-05-03 23:09:00,66.5,42.7,30.13,ESE,119,2.0,3.0,42,0.00,,,0.00,WeatherCatV1.15B25,2013-05-04 03:09:00,
2013-05-03 23:14:00,66.6,42.2,30.13,ESE,119,0.0,1.0,41,0.00,,,0.00,WeatherCatV1.15B25,2013-05-04 03:14:00,
2013-05-03 23:19:00,66.4,42.6,30.13,SSE,153,0.0,4.0,42,0.00,,,0.00,WeatherCatV1.15B25,2013-05-04 03:19:00,
2013-05-03 23:24:00,66.1,42.3,30.13,SSE,153,0.0,0.0,42,0.00,,,0.00,WeatherCatV1.15B25,2013-05-04 03:24:00,
2013-05-03 23:29:00,66.0,42.2,30.13,SE,128,3.0,3.0,42,0.00,,,0.00,WeatherCatV1.15B25,2013-05-04 03:29:00,
2013-05-03 23:34:00,65.9,42.8,30.13,SE,145,0.0,0.0,43,0.00,,,0.00,WeatherCatV1.15B25,2013-05-04 03:34:00,
2013-05-03 23:39:00,65.9,42.8,30.13,SE,133,0.0,3.0,43,0.00,,,0.00,WeatherCatV1.15B25,2013-05-04 03:39:00,
2013-05-03 23:44:00,65.8,42.7,30.13,ESE,110,2.0,5.0,43,0.00,,,0.00,WeatherCatV1.15B25,2013-05-04 03:44:00,
2013-05-03 23:49:00,65.8,42.7,30.13,SSE,147,1.0,4.0,43,0.00,,,0.00,WeatherCatV1.15B25,2013-05-04 03:49:00,
2013-05-03 23:54:00,65.7,42.6,30.14,SE,135,2.0,6.0,43,0.00,,,0.00,WeatherCatV1.15B25,2013-05-04 03:54:00,